| time (UTC) | temp F | wind direction | speed MPH | gust MPH | rain 1hr in | rain 24hr in | rain mn in | humidity % | barometer mb |
| 20260507024559 | 44 | 233 | 5.0 | 0.0 | 0.00 | 0.00 | 0.00 | 33 | 1010.7 |
| 20260507023059 | 44 | 252 | 2.0 | 0.0 | 0.00 | 0.00 | 0.00 | 31 | 1010.5 |
| 20260507021611 | 44 | 260 | 6.0 | 0.0 | 0.00 | 0.00 | 0.00 | 31 | 1010.5 |
| 20260507020058 | 45 | 215 | 0.0 | 0.0 | 0.00 | 0.00 | 0.00 | 35 | 1010.5 |
| 20260507014559 | 44 | 254 | 2.0 | 0.0 | 0.00 | 0.00 | 0.00 | 35 | 1010.6 |
| 20260507013057 | 44 | 252 | 3.0 | 0.0 | 0.00 | 0.00 | 0.00 | 33 | 1010.7 |
| 20260507011601 | 44 | 270 | 2.0 | 0.0 | 0.00 | 0.00 | 0.00 | 35 | 1010.8 |
| 20260507010055 | 44 | 221 | 1.0 | 0.0 | 0.00 | 0.00 | 0.00 | 35 | 1010.8 |
| 20260507004555 | 43 | 239 | 4.0 | 0.0 | 0.00 | 0.00 | 0.00 | 33 | 1010.8 |
| 20260507003054 | 43 | 229 | 2.0 | 0.0 | 0.00 | 0.00 | 0.00 | 34 | 1010.8 |
| 20260507001600 | 42 | 260 | 4.0 | 0.0 | 0.00 | 0.00 | 0.00 | 35 | 1010.8 |
| 20260507000054 | 43 | 236 | 5.0 | 0.0 | 0.00 | 0.00 | 0.00 | 35 | 1010.7 |
| 20260506234614 | 43 | 292 | 2.0 | 0.0 | 0.00 | 0.00 | 0.00 | 34 | 1010.7 |
| 20260506233053 | 43 | 257 | 4.0 | 0.0 | 0.00 | 0.00 | 0.00 | 34 | 1010.6 |
| 20260506231555 | 43 | 225 | 6.0 | 0.0 | 0.00 | 0.00 | 0.00 | 33 | 1010.5 |
| 20260506230052 | 43 | 303 | 4.0 | 0.0 | 0.00 | 0.00 | 0.00 | 37 | 1010.7 |
| 20260506224551 | 43 | 239 | 6.0 | 0.0 | 0.00 | 0.00 | 0.00 | 35 | 1010.5 |
| 20260506223058 | 42 | 331 | 5.0 | 0.0 | 0.00 | 0.00 | 0.00 | 37 | 1010.6 |
| 20260506221554 | 42 | 236 | 5.0 | 0.0 | 0.00 | 0.00 | 0.00 | 36 | 1010.5 |
| 20260506220050 | 42 | 205 | 5.0 | 0.0 | 0.00 | 0.00 | 0.00 | 36 | 1010.4 |
| 20260506214549 | 42 | 253 | 5.0 | 0.0 | 0.00 | 0.00 | 0.00 | 36 | 1010.3 |
| 20260506213047 | 42 | 284 | 4.0 | 0.0 | 0.00 | 0.00 | 0.00 | 41 | 1010.3 |
| 20260506211546 | 42 | 277 | 6.0 | 0.0 | 0.00 | 0.00 | 0.00 | 41 | 1010.2 |
| 20260506210044 | 41 | 217 | 5.0 | 0.0 | 0.00 | 0.00 | 0.00 | 46 | 1010.3 |
| 20260506204553 | 41 | 207 | 4.0 | 0.0 | 0.00 | 0.00 | 0.00 | 45 | 1010.2 |
| 20260506203041 | 40 | 241 | 5.0 | 0.0 | 0.00 | 0.00 | 0.00 | 46 | 1010.1 |
| 20260506201546 | 40 | 211 | 6.0 | 0.0 | 0.00 | 0.00 | 0.00 | 50 | 1010.1 |
| 20260506194549 | 40 | 254 | 3.0 | 0.0 | 0.00 | 0.00 | 0.00 | 51 | 1009.8 |
| 20260506193041 | 39 | 242 | 6.0 | 0.0 | 0.00 | 0.00 | 0.00 | 53 | 1009.8 |
| 20260506191537 | 39 | 277 | 6.0 | 0.0 | 0.00 | 0.00 | 0.00 | 52 | 1009.7 |
| 20260506190038 | 38 | 250 | 7.0 | 0.0 | 0.00 | 0.00 | 0.00 | 59 | 1009.7 |
| 20260506184534 | 38 | 222 | 6.0 | 0.0 | 0.00 | 0.00 | 0.00 | 60 | 1009.7 |
| 20260506183033 | 38 | 242 | 4.0 | 0.0 | 0.00 | 0.00 | 0.00 | 66 | 1009.7 |
| 20260506181535 | 37 | 236 | 6.0 | 0.0 | 0.00 | 0.00 | 0.00 | 66 | 1009.7 |
| 20260506180030 | 37 | 207 | 6.0 | 0.0 | 0.00 | 0.00 | 0.00 | 71 | 1009.5 |
| 20260506174529 | 36 | 234 | 4.0 | 0.0 | 0.00 | 0.00 | 0.00 | 74 | 1009.3 |
| 20260506173028 | 36 | 248 | 4.0 | 0.0 | 0.00 | 0.00 | 0.00 | 79 | 1009.3 |
| 20260506171537 | 35 | 229 | 5.0 | 0.0 | 0.00 | 0.00 | 0.00 | 80 | 1009.2 |
| 20260506170024 | 35 | 248 | 3.0 | 0.0 | 0.00 | 0.00 | 0.00 | 83 | 1009.2 |
| 20260506164524 | 34 | 231 | 2.0 | 0.0 | 0.00 | 0.00 | 0.00 | 84 | 1009.2 |
| 20260506163022 | 34 | 247 | 3.0 | 0.0 | 0.00 | 0.00 | 0.00 | 85 | 1009.1 |
| 20260506161523 | 34 | 261 | 1.0 | 0.0 | 0.00 | 0.00 | 0.00 | 86 | 1009.1 |
| 20260506160032 | 34 | 263 | 1.0 | 0.0 | 0.00 | 0.00 | 0.00 | 87 | 1008.9 |
| 20260506154520 | 34 | 286 | 0.0 | 0.0 | 0.00 | 0.00 | 0.00 | 87 | 1008.7 |
| 20260506153018 | 34 | 237 | 3.0 | 0.0 | 0.00 | 0.00 | 0.00 | 87 | 1008.7 |
| 20260506151525 | 33 | 250 | 1.0 | 0.0 | 0.00 | 0.00 | 0.00 | 88 | 1008.6 |
| 20260506150025 | 33 | 231 | 1.0 | 0.0 | 0.00 | 0.00 | 0.00 | 89 | 1008.5 |
| 20260506144513 | 33 | 234 | 2.0 | 0.0 | 0.00 | 0.00 | 0.00 | 90 | 1008.3 |
| 20260506143033 | 33 | 246 | 2.0 | 0.0 | 0.00 | 0.00 | 0.00 | 90 | 1008.2 |
| 20260506141512 | 33 | 212 | 2.0 | 0.0 | 0.00 | 0.00 | 0.00 | 90 | 1008.1 |
| 20260506140013 | 33 | 250 | 4.0 | 0.0 | 0.00 | 0.00 | 0.00 | 90 | 1007.9 |
| 20260506134508 | 34 | 257 | 2.0 | 0.0 | 0.00 | 0.00 | 0.00 | 90 | 1007.7 |
| 20260506133006 | 34 | 271 | 1.0 | 0.0 | 0.00 | 0.00 | 0.00 | 90 | 1007.6 |
| 20260506131508 | 34 | 243 | 1.0 | 0.0 | 0.00 | 0.00 | 0.00 | 90 | 1007.5 |
| 20260506130005 | 34 | 228 | 2.0 | 0.0 | 0.00 | 0.00 | 0.00 | 89 | 1007.2 |
| 20260506124502 | 34 | 213 | 1.0 | 0.0 | 0.00 | 0.00 | 0.00 | 89 | 1007.1 |
| 20260506123100 | 35 | 228 | 3.0 | 0.0 | 0.00 | 0.00 | 0.00 | 89 | 1007.0 |
| 20260506121600 | 35 | 258 | 2.0 | 0.0 | 0.00 | 0.00 | 0.00 | 89 | 1006.8 |
| 20260506120057 | 35 | 225 | 1.0 | 0.0 | 0.00 | 0.00 | 0.00 | 90 | 1006.6 |
| 20260506114553 | 35 | 232 | 1.0 | 0.0 | 0.00 | 0.00 | 0.00 | 90 | 1006.5 |
| 20260506113058 | 35 | 245 | 0.0 | 0.0 | 0.00 | 0.00 | 0.00 | 90 | 1006.4 |
| 20260506111554 | 35 | 236 | 1.0 | 0.0 | 0.00 | 0.00 | 0.00 | 90 | 1006.2 |
| 20260506110059 | 36 | 236 | 0.0 | 0.0 | 0.00 | 0.00 | 0.00 | 90 | 1006.1 |
| 20260506104558 | 36 | 238 | 1.0 | 0.0 | 0.00 | 0.00 | 0.00 | 90 | 1005.9 |
| 20260506103048 | 36 | 244 | 2.0 | 0.0 | 0.00 | 0.00 | 0.00 | 90 | 1005.7 |
| 20260506101553 | 37 | 235 | 1.0 | 0.0 | 0.00 | 0.00 | 0.00 | 91 | 1005.5 |
| 20260506100042 | 37 | 228 | 0.0 | 0.0 | 0.00 | 0.00 | 0.00 | 91 | 1005.4 |
| 20260506094550 | 37 | 228 | 0.0 | 0.0 | 0.00 | 0.00 | 0.00 | 91 | 1005.1 |
| 20260506093038 | 38 | 221 | 0.0 | 0.0 | 0.00 | 0.00 | 0.00 | 91 | 1005.0 |
| 20260506091537 | 38 | 221 | 0.0 | 0.0 | 0.00 | 0.00 | 0.00 | 91 | 1004.8 |
| 20260506090037 | 39 | 221 | 0.0 | 0.0 | 0.00 | 0.00 | 0.00 | 91 | 1004.5 |
| 20260506084535 | 39 | 215 | 0.0 | 0.0 | 0.00 | 0.00 | 0.14 | 92 | 1004.3 |
| 20260506083034 | 39 | 209 | 0.0 | 0.0 | 0.00 | 0.00 | 0.14 | 92 | 1004.0 |
| 20260506081539 | 40 | 209 | 0.0 | 0.0 | 0.00 | 0.00 | 0.14 | 92 | 1003.9 |
| 20260506073038 | 39 | 209 | 0.0 | 0.0 | 0.00 | 0.00 | 0.14 | 91 | 1003.4 |
| 20260506071536 | 40 | 209 | 0.0 | 0.0 | 0.00 | 0.00 | 0.14 | 91 | 1003.4 |
| 20260506061530 | 41 | 248 | 0.0 | 0.0 | 0.00 | 0.00 | 0.13 | 89 | 1002.8 |
| 20260506044528 | 43 | 234 | 0.0 | 0.0 | 0.00 | 0.00 | 0.11 | 88 | 1001.8 |
| 20260506043028 | 43 | 235 | 0.0 | 0.0 | 0.00 | 0.00 | 0.11 | 90 | 1002.0 |
| 20260506041532 | 44 | 247 | 0.0 | 0.0 | 0.00 | 0.00 | 0.10 | 90 | 1001.8 |
| 20260506040029 | 44 | 247 | 0.0 | 0.0 | 0.00 | 0.00 | 0.09 | 88 | 1001.7 |
| 20260506034526 | 44 | 247 | 0.0 | 0.0 | 0.00 | 0.00 | 0.09 | 89 | 1001.4 |
| 20260506033029 | 44 | 247 | 0.0 | 0.0 | 0.00 | 0.00 | 0.09 | 86 | 1001.3 |
| 20260506031527 | 44 | 247 | 0.0 | 0.0 | 0.00 | 0.00 | 0.09 | 87 | 1001.3 |
| 20260506030026 | 44 | 247 | 0.0 | 0.0 | 0.00 | 0.00 | 0.09 | 86 | 1001.2 |